Weather in Kurakino

Russia / Penza Oblast     52°32′42″N   44°02′43″E
temp.,
°C
wind,
m/s
gust,
m/s
humid.,
%
clouds,
%
prec.,
mm/h
press.,
hPa
HPBL,
m
21 january, fri
fri2100:00−16s4119772 0.0 1019177
03:00−16s4119756 0.0 1017181
06:00−15s5139578 0.0 1016231
09:00−12sse61693100 0.0 1015361
12:00−9sse81988100 0.0 1013524
15:00−7sse92090100 0.1 1011664
18:00−7sse91792100 0.7 1010606
21:00−5sse91894100 1.4 1009646
22 january, sat
sat2200:00−3s6119496 1.2 1010444
03:00−10s369746 1.2 101267
06:00−13s359849 0.0 101351
09:00−12s369751 0.0 101591
12:00−7s4109349 0.0 1015287
15:00−5s399298 0.0 1016346
18:00−11sse239996 0.0 101826
21:00−12sse229980 0.0 101923
23 january, sun
sun2300:00−11s2210099 0.0 102141
03:00−8sse2398100 0.1 1021111
06:00−8ese2298100 0.1 102342
09:00−8e2497100 0.1 1025102
12:00−4ene3694100 0.0 1025263
15:00−3ene5896100 0.2 1026423
18:00−4e61196100 1.6 1027457
21:00−5e61293100 3.1 1028431
24 january, mon
mon2400:00−7e61387100 0.0 1029393
03:00−9e51287100 0.0 1030303
06:00−9e51386100 0.0 1030329
09:00−9e61486100 0.0 1031348
12:00−7ese61385100 0.0 1031410
15:00−7e51287100 0.0 1031390
18:00−9e51288100 0.0 1032285
21:00−11e41189100 0.0 1032248
25 january, tue
tue2500:00−12e41188100 0.0 1032219
03:00−12ese4987100 0.0 1031176
06:00−14ese41087100 0.0 1031181
09:00−13ese41287100 0.0 1031226
12:00−10se4108558 0.0 1030279
15:00−9se410887 0.0 1029269
18:00−13ese410946 0.0 1030153
21:00−14ese49967 0.0 1030143